Location: Carella
(45.8167°N, 9.2667°E)
Time: 08:46:09
(UTC+00:00)

USA 234 - Pass Details

Date: 30 March 2020
Orbit: 1102 x 1106 km, 123.0° (Epoch: 14 May)

Event Time Altitude Azimuth Distance (km) Brightness Sun altitude
Rises 20:06:34 0° 51° (NE) 3,926 6.0 -23.1°
Reaches altitude 10° 20:09:03 10° 50° (NE) 2,967 5.4 -23.5°
Maximum altitude 20:15:34 71° 328° (NNW) 1,160 3.4 -24.4°
Drops below altitude 10° 20:22:04 10° 246° (WSW) 2,959 5.8 -25.3°
Sets 20:24:32 0° 244° (WSW) 3,916 6.5 -25.7°
